User: anonymous   Login
Location: Vancouver
(49.2500°N, 123.1330°W)
Time: 03:29:38
(UTC-08:00)
Language:

ERS-2 - Orbit

View from above orbital plane
View from above orbital plane
View from above satellite
View from above satellite

Ground track
Ground track

The orbit data is extracted from the following two-line orbital elements,

1 23560U 95021A   16343.03619436  .00001856  00000-0  90204-4 0  9991
2 23560  98.5350 304.0255 0002709 221.1203 138.9825 15.19992551146347
Epoch (UTC): 08 December 2016 00:52:07
Eccentricity: 0.0002709
inclination: 98.5350°
perigee height: 504 km
apogee height: 508 km
right ascension of ascending node: 304.0255°
argument of perigee: 221.1203°
revolutions per day: 15.19992551
mean anomaly at epoch: 138.9825°
orbit number at epoch: 14634

The dashed part of the orbit path shows where the satellite is in the earth's shadow,  

DLR